[[{"header":{"parameterUnit":"m.s-1","parameterCategory":1,"la1":30.2991,"la2":30.254,"lo1":-89.0895,"lo2":-89.0444,"dy":0.0017,"dx":0.0017,"nx":28,"ny":28,"refTime":"2025-08-14T03:00:00:Z","depth":0,"parameterNumber":2,"parameterNumberName":"U-component_of_WINDS"},"data":[0,0,0,0,0,0,0,0,0,0,0,0,0,0,0,0,0,0,0,0,0,0,0,0,0,0,0,0,0,0,0,0,0,0,0,0,0,0,0,0,0,0,0,0,0,0,0,0,0,0,0,0,0,0,0,0,0,0,0.775,0.775,0,0.7787,0.7788,0.7788,0.7735,0.7733,0.7732,0.773,0.7776,0.7779,0.7782,0,0,0,0,0,0,0,0,0,0,0,0,0,0.764,0.7642,0.775,0.775,0.7751,0.7787,0.7788,0.7788,0.7736,0.7733,0.7731,0.7729,0.7775,0.7779,0.7782,0,0,0,0,0,0,0,0,0,0,0,0,0,0.7684,0.7643,0.775,0.7729,0.7727,0.7787,0.7788,0.7788,0.7736,0.7733,0.773,0.7728,0.7774,0.7778,0.7783,0.7868,0,0,0.7797,0.7799,0,0,0,0,0,0,0,0,0.7681,0.7688,0.7731,0.773,0.7729,0.7753,0.7766,0.7815,0.7737,0.7733,0.773,0.7726,0.7771,0.7776,0.779,0.787,0.7872,0.7797,0.78,0.7802,0.7803,0,0,0,0,0,0,0,0.7679,0.7686,0.7765,0.7732,0.773,0.772,0.7723,0.7775,0.7768,0.7733,0.7729,0.7734,0.777,0.7785,0.779,0.7872,0.7797,0.7801,0.7804,0.7805,0.8025,0.8028,0,0,0,0,0,0,0.7677,0.7684,0.7764,0.7766,0.7697,0.7724,0.7727,0.7749,0.7767,0.7767,0.7736,0.7731,0.7779,0.7785,0.7792,0.7893,0.7802,0.7806,0.7808,0.8022,0.8026,0.8029,0,0,0,0,0,0,0.7675,0.7684,0.7762,0.7724,0.7733,0.7729,0.7753,0.7751,0.7766,0.777,0.7769,0.7753,0.7777,0.7785,0.7849,0.7893,0.7808,0.7812,0.8018,0.8023,0.8027,0.8095,0,0,0,0,0,0,0.7672,0.7684,0.7714,0.7725,0.7735,0.7816,0.7756,0.7754,0.7773,0.7766,0.7785,0.7785,0.7775,0.7842,0.7853,0.7898,0.7815,0.8014,0.802,0.8026,0.8089,0.8101,0.8112,0,0,0,0,0,0.7668,0.7734,0.7716,0.7726,0.7773,0.7819,0.7825,0.781,0.7776,0.7808,0.7811,0.7784,0.7886,0.7849,0.7861,0.7908,0.8011,0.8019,0.8025,0.8084,0.8099,0.8112,0,0,0,0,0,0,0.7732,0.7735,0.7715,0.7786,0.7802,0.781,0.785,0.7827,0.7856,0.7849,0.7832,0.7837,0.7905,0.7913,0.7871,0.7991,0.7944,0.7953,0.7984,0.7998,0.801,0.8007,0.7819,0,0,0,0,0,0.7753,0.7788,0.779,0.7852,0.7861,0.7854,0.7874,0.7861,0.7878,0.7886,0.7893,0.7913,0.795,0.7974,0.8008,0.8089,0.8093,0.8128,0.8139,0.8149,0.8158,0.8203,0.8218,0.8052,0.8052,0.8052,0,0,0.7799,0.7805,0.7829,0.7865,0.7876,0.7915,0.786,0.7904,0.7933,0.7893,0.7953,0.7959,0.798,0.8053,0.8086,0.8062,0.8205,0.8158,0.8165,0.817,0.8211,0.8227,0.8241,0.8057,0.8056,0.8055,0,0,0.7903,0.791,0.7963,0.7975,0.7991,0.7986,0.7999,0.801,0.8012,0.8071,0.8042,0.8078,0.8141,0.8157,0.8174,0.8284,0.8261,0.8296,0.8358,0.8401,0.8414,0.8426,0.8466,0.8481,0.8304,0.8305,0.8305,0,0.7959,0.8014,0.7994,0.8039,0.8056,0.8019,0.8073,0.8087,0.8115,0.8129,0.8101,0.8179,0.8191,0.8268,0.8294,0.8309,0.8325,0.8294,0.8413,0.8425,0.8435,0.8474,0.8489,0.8309,0.8308,0.8308,0.8307,0,0.8083,0.8121,0.8162,0.8188,0.821,0.826,0.8249,0.8274,0.8259,0.8258,0.8319,0.8332,0.8368,0.8385,0.8372,0.846,0.8445,0.8416,0.8367,0.8456,0.8492,0.8506,0.8315,0.8313,0.8312,0.8311,0,0,0.8229,0.8241,0.8256,0.8268,0.8283,0.8314,0.8363,0.8395,0.8418,0.8439,0.8481,0.8535,0.8507,0.8527,0.8515,0.8553,0.8641,0.852,0.852,0.8543,0.874,0.8763,0.878,0.8625,0.8628,0.863,0.8739,0,0.8333,0.8414,0.8398,0.8479,0.8515,0.848,0.8523,0.8538,0.8538,0.8571,0.8572,0.8611,0.8572,0.8583,0.8619,0.8622,0.868,0.8614,0.8667,0.8669,0.8663,0.8798,0.8822,0.8924,0.8752,0.8755,0.8756,0,0.8466,0.8489,0.8573,0.8582,0.8597,0.8636,0.8664,0.8695,0.8713,0.871,0.8731,0.8712,0.8763,0.8713,0.8785,0.874,0.876,0.8765,0.8769,0.8775,0.8719,0.8809,0.8956,0.8972,0.8778,0.8776,0.8775,0,0.8565,0.8618,0.8674,0.8685,0.8698,0.8726,0.8733,0.8747,0.8768,0.8794,0.8807,0.884,0.8858,0.8885,0.8876,0.884,0.895,0.8899,0.8951,0.8951,0.8977,0.8976,0.9131,0.8988,0.8988,0.8988,0.8987,0,0.8684,0.8738,0.8719,0.8755,0.8814,0.8794,0.8854,0.8858,0.8871,0.8908,0.888,0.8916,0.8901,0.8937,0.8931,0.8992,0.9,0.9001,0.8999,0.9004,0.9004,0.9019,0.9012,0.8992,0.8991,0.899,0.8989,0,0.8806,0.8795,0.8855,0.8861,0.8864,0.8908,0.8914,0.8949,0.8946,0.8993,0.9003,0.9,0.904,0.9034,0.908,0.9075,0.9151,0.914,0.9145,0.9143,0.9196,0.9191,0.9367,0.9389,0.9231,0.9232,0.9234,0,0.8883,0.8923,0.8932,0.8954,0.8962,0.8998,0.9018,0.9001,0.9024,0.9046,0.9079,0.9116,0.9145,0.9212,0.9215,0.925,0.9241,0.93,0.9246,0.925,0.9243,0.9241,0.9246,0.9311,0.9313,0.9314,0.9315,0,0.9022,0.9014,0.9043,0.9071,0.9095,0.9117,0.9136,0.9156,0.914,0.9168,0.9207,0.923,0.9275,0.9314,0.9346,0.9356,0.9335,0.9332,0.9346,0.9352,0.9354,0.9355,0.9175,0.9328,0.9327,0.9326,0.9325,0.9325,0.9124,0.9158,0.917,0.9203,0.9215,0.9234,0.9266,0.9266,0.9298,0.9332,0.9321,0.9366,0.9384,0.9425,0.9438,0.9475,0.9454,0.9474,0.948,0.9485,0.9492,0.9347,0.9481,0.9481,0.948,0.948,0.948,0,0.9262,0.9268,0.9298,0.9325,0.9352,0.9325,0.9345,0.937,0.941,0.9426,0.9455,0.9501,0.9538,0.9544,0.9579,0.9608,0.9599,0.9618,0.9617,0.9619,0.9508,0.9493,0.9625,0.9625,0.9625,0.9625,0.9625,0.9625,0.9337,0.9393,0.9387,0.945,0.9455,0.9498,0.9511,0.9529,0.9542,0.9594,0.9623,0.9626,0.9639,0.9675,0.9708,0.9709,0.9724,0.9747,0.9745,0.9642,0.9627,0.9613,0.9599,0.9751,0.9751,0.9853,0.9854,0.9854]},{"header":{"parameterUnit":"m.s-1","parameterCategory":1,"la1":30.2991,"la2":30.254,"lo1":-89.0895,"lo2":-89.0444,"dy":0.0017,"dx":0.0017,"nx":28,"ny":28,"refTime":"2025-08-14T03:00:00:Z","depth":0,"parameterNumber":3,"parameterNumberName":"V-component_of_WINDS"},"data":[0,0,0,0,0,0,0,0,0,0,0,0,0,0,0,0,0,0,0,0,0,0,0,0,0,0,0,0,0,0,0,0,0,0,0,0,0,0,0,0,0,0,0,0,0,0,0,0,0,0,0,0,0,0,0,0,0,0,2.0115,2.0115,0,2.0127,2.0127,2.0127,2.01,2.0099,2.0099,2.0098,2.0108,2.0109,2.011,0,0,0,0,0,0,0,0,0,0,0,0,0,2.0067,2.0068,2.0115,2.0115,2.0115,2.0127,2.0127,2.0127,2.01,2.0099,2.0098,2.0097,2.0108,2.0109,2.011,0,0,0,0,0,0,0,0,0,0,0,0,0,2.0084,2.0068,2.0115,2.0104,2.0103,2.0127,2.0127,2.0127,2.0101,2.0099,2.0098,2.0097,2.0107,2.0109,2.011,2.0146,0,0,2.0115,2.0116,0,0,0,0,0,0,0,0,2.0083,2.0086,2.0105,2.0104,2.0103,2.0111,2.0114,2.0133,2.0101,2.0101,2.0098,2.0096,2.011,2.0111,2.0116,2.0146,2.0147,2.0115,2.0116,2.0117,2.0117,0,0,0,0,0,0,0,2.0082,2.0085,2.012,2.0105,2.0104,2.0097,2.0098,2.0117,2.0113,2.0101,2.0099,2.0101,2.0109,2.0115,2.0116,2.0147,2.0115,2.0117,2.0118,2.0118,2.0203,2.0204,0,0,0,0,0,0,2.0082,2.0084,2.0119,2.012,2.009,2.0099,2.01,2.011,2.0112,2.0111,2.0102,2.01,2.0112,2.0114,2.0116,2.0155,2.0117,2.0119,2.0119,2.0201,2.0203,2.0204,0,0,0,0,0,0,2.0082,2.0086,2.0119,2.0102,2.0105,2.0101,2.0112,2.0111,2.0116,2.0113,2.0112,2.0109,2.0112,2.0114,2.0138,2.0155,2.0119,2.0121,2.02,2.0202,2.0203,2.0234,0,0,0,0,0,0,2.008,2.0086,2.01,2.0102,2.0106,2.0141,2.0113,2.0112,2.0119,2.0116,2.0119,2.0118,2.0111,2.0136,2.0139,2.0156,2.0122,2.0198,2.0201,2.0203,2.0231,2.0236,2.0241,0,0,0,0,0,2.0079,2.0109,2.0101,2.0105,2.0124,2.0142,2.0144,2.0136,2.0121,2.0134,2.0132,2.0118,2.0153,2.0138,2.0142,2.016,2.0197,2.02,2.0203,2.0229,2.0235,2.0241,0,0,0,0,0,0,2.0109,2.0109,2.01,2.0132,2.0137,2.0138,2.0154,2.0144,2.0153,2.015,2.0138,2.0139,2.0164,2.0165,2.0149,2.0193,2.0172,2.0176,2.0191,2.0197,2.0202,2.02,2.0123,0,0,0,0,0,2.0119,2.0134,2.0134,2.0161,2.0165,2.0159,2.0167,2.0159,2.0164,2.0166,2.0166,2.0171,2.0182,2.019,2.0201,2.0232,2.023,2.0246,2.0251,2.0255,2.0257,2.0271,2.0276,2.0214,2.0214,2.0214,0,0,2.014,2.0142,2.0153,2.0167,2.0171,2.0185,2.0161,2.0179,2.0188,2.0169,2.019,2.019,2.0194,2.0221,2.0233,2.0222,2.0275,2.0259,2.0262,2.0262,2.0274,2.028,2.0285,2.0216,2.0215,2.0215,0,0,2.0185,2.019,2.0212,2.0215,2.0221,2.0216,2.0222,2.0224,2.0223,2.0244,2.0229,2.0241,2.0262,2.0264,2.0268,2.0313,2.03,2.0317,2.0342,2.0355,2.0359,2.0364,2.0376,2.0381,2.032,2.032,2.032,0,2.0211,2.0233,2.0225,2.0242,2.0247,2.0231,2.0251,2.0255,2.0264,2.0267,2.0256,2.028,2.0282,2.0307,2.0318,2.0323,2.0327,2.0315,2.036,2.0364,2.0368,2.0379,2.0385,2.0322,2.0322,2.0322,2.0322,0,2.0262,2.0278,2.0295,2.0302,2.031,2.0329,2.0322,2.0331,2.0323,2.032,2.034,2.0342,2.0351,2.0358,2.0351,2.0381,2.0374,2.0362,2.034,2.0376,2.0386,2.0391,2.0325,2.0324,2.0324,2.0323,0,0,2.0326,2.0327,2.0333,2.0335,2.0339,2.035,2.0368,2.0377,2.0383,2.039,2.0402,2.042,2.0407,2.0412,2.0405,2.0417,2.0448,2.0402,2.0402,2.0408,2.0478,2.0485,2.0491,2.044,2.0441,2.0442,2.0477,0,2.0367,2.0397,2.0389,2.0418,2.0431,2.0414,2.0429,2.0432,2.043,2.0439,2.0436,2.0447,2.0432,2.0434,2.0445,2.0442,2.0461,2.044,2.0449,2.045,2.0446,2.0497,2.0505,2.0538,2.0481,2.0482,2.0483,0,2.042,2.0427,2.0457,2.0456,2.0461,2.0475,2.0481,2.0491,2.0493,2.049,2.0495,2.0485,2.05,2.0481,2.0501,2.0486,2.049,2.0489,2.049,2.0488,2.0466,2.0493,2.0548,2.0552,2.049,2.0489,2.0489,0,2.0458,2.0476,2.0495,2.0498,2.0499,2.0508,2.0508,2.051,2.0515,2.0521,2.0523,2.0531,2.0535,2.054,2.0532,2.0519,2.0552,2.0533,2.0548,2.0548,2.0553,2.0552,2.0606,2.0561,2.0561,2.0561,2.0561,0,2.0504,2.0522,2.0512,2.0524,2.0543,2.0533,2.0552,2.0551,2.0552,2.0562,2.055,2.0559,2.0549,2.0558,2.0552,2.0567,2.057,2.0566,2.0564,2.0565,2.0565,2.0566,2.0562,2.0562,2.0562,2.0561,2.0561,0,2.0549,2.0543,2.0563,2.0561,2.0561,2.0575,2.0573,2.0583,2.058,2.0592,2.0595,2.0589,2.0598,2.0591,2.06,2.0596,2.0615,2.0611,2.0614,2.0612,2.0626,2.0623,2.0679,2.0685,2.0639,2.0639,2.064,0,2.0576,2.059,2.0589,2.0595,2.0596,2.0606,2.0611,2.0602,2.0607,2.061,2.0619,2.0627,2.0633,2.0648,2.0643,2.065,2.0644,2.0663,2.0645,2.0645,2.064,2.0638,2.0638,2.0666,2.0666,2.0667,2.0667,0,2.0625,2.0621,2.0629,2.0635,2.0641,2.0645,2.0649,2.0654,2.0645,2.0652,2.066,2.0665,2.0673,2.068,2.0685,2.0685,2.0673,2.0673,2.0676,2.0677,2.0677,2.0674,2.0621,2.0671,2.0671,2.0671,2.067,2.067,2.066,2.0669,2.067,2.0678,2.068,2.0683,2.0691,2.0689,2.0696,2.0702,2.0696,2.0706,2.0707,2.0712,2.0713,2.072,2.0712,2.0717,2.0718,2.0719,2.0719,2.0678,2.0721,2.0721,2.0721,2.0721,2.072,0,2.0704,2.0704,2.0712,2.0716,2.0722,2.0712,2.0715,2.0721,2.0729,2.0731,2.0736,2.0745,2.0752,2.0749,2.0754,2.076,2.0755,2.0761,2.0759,2.0759,2.0728,2.0723,2.0765,2.0765,2.0765,2.0765,2.0765,2.0765,2.0728,2.0743,2.0739,2.0754,2.0754,2.0763,2.0765,2.0767,2.0768,2.0779,2.0784,2.0782,2.0781,2.0786,2.0791,2.079,2.0791,2.0799,2.0795,2.0766,2.0761,2.0757,2.0752,2.08,2.08,2.0825,2.0826,2.0826]}]]